EW9855 Weather Reports


time (UTC)temp
C
wind
direction
speed
KPH
gust
KPH
rain 1hr
cm
rain 24hr
cm
rain mn
cm
humidity
%
barometer
mb
20260506044524 12 175 0.0 0.0 0.00 0.00 0.00 91 1017.9
20260506043012 12 173 0.0 0.0 0.00 0.00 0.00 91 1017.8
20260506041548 12 194 0.0 3.2 0.00 0.00 0.00 90 1017.7
20260506040029 12 234 0.0 4.8 0.00 0.00 0.00 90 1017.5
20260506034508 12 252 0.0 0.0 0.00 0.00 0.00 90 1017.3
20260506033044 12 252 0.0 0.0 0.00 0.00 0.00 89 1017.0
20260506031534 12 244 0.0 0.0 0.00 0.00 0.00 89 1016.8
20260506030012 13 244 0.0 3.2 0.00 0.00 0.00 89 1016.7
20260506024549 13 244 1.6 6.4 0.00 0.00 0.00 88 1016.5
20260506023025 13 254 0.0 9.7 0.00 0.00 0.00 88 1016.5
20260506021559 13 232 1.6 3.2 0.00 0.00 0.00 87 1016.4
20260506020041 13 216 3.2 8.0 0.00 0.00 0.00 86 1016.4
20260506014516 13 226 0.0 6.4 0.00 0.00 0.00 86 1016.2
20260506013057 13 224 0.0 8.0 0.00 0.00 0.00 85 1016.3
20260506011600 14 219 3.2 14.5 0.00 0.00 0.00 85 1016.1
20260506010017 14 220 3.2 9.7 0.00 0.00 0.00 84 1016.0
20260506004605 15 265 1.6 9.7 0.00 0.00 0.00 84 1016.0
20260506003035 15 215 0.0 6.4 0.00 0.00 0.00 83 1015.9
20260506001516 15 257 0.0 11.3 0.00 0.00 0.00 82 1015.9
20260506000118 15 256 3.2 16.1 0.00 0.00 0.00 81 1016.0
20260505234543 16 233 4.8 12.9 0.00 0.00 0.00 80 1015.8
20260505233016 16 215 1.6 14.5 0.00 0.00 0.00 79 1016.0
20260505231611 16 243 4.8 14.5 0.00 0.00 0.00 78 1016.0
20260505230059 16 198 6.4 19.3 0.00 0.00 0.00 78 1016.1
20260505224532 16 279 6.4 19.3 0.00 0.00 0.00 77 1015.9
20260505223015 17 215 4.8 22.5 0.00 0.00 0.00 78 1016.0
20260505221557 17 271 4.8 16.1 0.00 0.00 0.00 77 1016.0
20260505220032 17 237 3.2 19.3 0.00 0.00 0.00 76 1016.0
20260505214512 17 234 9.7 22.5 0.00 0.00 0.00 74 1015.9
20260505213046 17 230 4.8 16.1 0.00 0.00 0.00 76 1016.0
20260505211541 17 232 3.2 12.9 0.00 0.00 0.00 76 1016.0
20260505210012 17 255 4.8 16.1 0.00 0.00 0.00 76 1016.0
20260505204553 17 259 3.2 12.9 0.00 0.00 0.00 75 1016.1
20260505203031 17 273 8.0 17.7 0.00 0.00 0.00 74 1016.1
20260505201512 17 237 1.6 11.3 0.00 0.00 0.00 77 1016.1
20260505200049 17 254 1.6 16.1 0.00 0.00 0.00 78 1016.2
20260505194536 17 217 4.8 14.5 0.00 0.00 0.00 79 1016.2
20260505193015 16 232 6.4 14.5 0.00 0.00 0.00 79 1016.4
20260505191555 16 346 1.6 11.3 0.00 0.00 0.00 81 1016.3
20260505190036 15 265 1.6 12.9 0.00 0.00 0.00 82 1016.4
20260505184514 15 231 1.6 11.3 0.00 0.00 0.00 83 1016.2
20260505183047 15 325 1.6 6.4 0.00 0.00 0.00 82 1016.3
20260505181526 15 308 1.6 6.4 0.00 0.00 0.00 83 1016.2
20260505180013 15 241 1.6 9.7 0.00 0.00 0.00 84 1016.2
20260505174545 15 293 0.0 3.2 0.00 0.00 0.00 84 1016.3
20260505173028 14 238 0.0 4.8 0.00 0.00 0.00 84 1016.2
20260505171507 13 343 0.0 3.2 0.00 0.00 0.00 86 1016.1
20260505170043 14 342 0.0 4.8 0.00 0.00 0.00 86 1016.2
20260505164526 13 28 0.0 4.8 0.00 0.00 0.00 86 1016.2
20260505163100 13 28 1.6 4.8 0.00 0.00 0.00 85 1016.1
20260505163001 13 28 0.0 4.8 0.00 0.00 0.00 84 1016.1
20260505161540 13 42 0.0 3.2 0.00 0.00 0.00 89 1016.2
20260505153039 12 42 0.0 4.8 0.00 0.00 0.00 97 1016.0
20260505151516 12 42 0.0 4.8 0.00 0.00 0.00 98 1015.9
20260505150116 11 42 0.0 0.0 0.00 0.00 0.00 98 1015.8
20260505124507 11 148 0.0 0.0 0.00 0.00 0.00 99 1015.4
20260505123053 11 148 0.0 0.0 0.00 0.00 0.00 99 1015.3
20260505121532 11 148 0.0 0.0 0.00 0.00 0.00 99 1015.2
20260505120057 11 148 0.0 0.0 0.00 0.00 0.00 99 1015.2
20260505120005 11 148 0.0 0.0 0.00 0.00 0.00 99 1015.1
20260505114542 11 148 0.0 0.0 0.00 0.00 0.00 98 1015.1
20260505113026 11 148 0.0 0.0 0.00 0.00 0.00 98 1015.0
20260505111503 11 148 0.0 0.0 0.00 0.00 0.00 98 1015.0
20260505101546 11 148 0.0 0.0 0.00 0.00 0.00 98 1015.0
20260505100037 11 148 0.0 0.0 0.00 0.00 0.00 98 1015.0
20260505094513 11 148 0.0 0.0 0.00 0.00 0.00 98 1015.2
20260505093052 11 148 0.0 0.0 0.00 0.00 0.00 98 1015.3
20260505091535 11 148 0.0 0.0 0.00 0.00 0.00 97 1015.2
20260505090006 11 148 0.0 0.0 0.00 0.00 0.00 97 1015.4
20260505084547 11 148 0.0 0.0 0.00 0.00 0.00 97 1015.5
20260505083032 11 148 0.0 0.0 0.00 0.00 0.00 97 1015.5
20260505081601 11 148 0.0 0.0 0.00 0.00 0.00 97 1015.6
20260505081503 11 148 0.0 0.0 0.00 0.00 0.00 97 1015.7
20260505080049 11 148 0.0 0.0 0.00 0.03 0.00 97 1015.7
20260505074518 11 148 0.0 0.0 0.00 0.03 0.00 96 1015.7
20260505073007 12 148 0.0 0.0 0.00 0.03 0.00 96 1015.8
20260505071548 12 148 0.0 0.0 0.00 0.03 0.00 96 1015.7
20260505070030 12 148 0.0 0.0 0.00 0.05 0.03 96 1015.7
20260505064609 12 148 0.0 0.0 0.00 0.05 0.03 96 1015.7
20260505064501 12 148 0.0 0.0 0.00 0.05 0.03 96 1015.6
20260505063053 12 148 0.0 0.0 0.00 0.05 0.03 96 1015.6
20260505061539 12 148 0.0 0.0 0.00 0.05 0.03 96 1015.6